Location: Santaluz Observatory
(32.9930°N, 117.1510°W)
Time: 11:58:31
(UTC-07:00)

Daily predictions for brighter satellites

Satellite Brightness Start Highest point End
(mag) Time Altitude Azimuth Time Altitude Azimuth Time Altitude Azimuth
Cosmos 2034 Rocket 4.1 19:45:13 10° S 19:51:24 84° W 19:57:36 10° N
CENTAUR R/B 4.0 19:50:56 10° WSW 19:56:29 40° NW 20:02:43 10° NNE
Resurs 1-3 4.1 19:53:27 10° SE 19:57:32 39° ENE 20:01:37 10° N
Gblst 52 Del rocket 4.5 19:52:14 10° NW 19:58:01 56° NE 20:03:24 10° ESE
Cosmos 1869 Rocket 4.1 19:57:02 10° N 20:01:16 41° E 20:05:29 10° SSE
Cosmos 2360 4.3 19:58:14 10° SSW 20:03:56 87° ESE 20:09:43 10° NNE
Atlas Centaur 2 3.3 20:00:29 10° SW 20:06:37 39° SSE 20:13:55 10° E
SL-8 R/B 3.7 20:02:39 10° NW 20:07:29 87° NE 20:11:58 12° SE
Cosmos 1455 2.1 20:05:52 10° S 20:09:39 80° E 20:13:27 10° N
BREEZE-M DEB (TANK) 3.5 20:07:50 10° WNW 20:10:23 46° SW 20:15:52 10° SE
Helios 1A 3.9 20:13:13 13° SE 20:16:26 30° ENE 20:20:10 10° N
Cosmos 1869 3.3 20:19:23 10° S 20:23:14 58° E 20:27:06 10° NNE
DELTA 2 R/B (1) 3.6 20:20:38 10° WNW 20:26:16 86° NNE 20:30:21 19° ESE
CZ-4B DEB 4.0 20:26:45 21° E 20:27:16 22° ENE 20:29:42 10° NNE
GRACE-1 3.8 20:25:59 10° N 20:28:43 84° W 20:31:25 10° S
Resurs 01 Rocket 1.9 20:24:18 10° S 20:28:43 72° WSW 20:33:11 10° NNW
GRACE-2 3.8 20:26:22 10° N 20:29:07 84° W 20:31:49 10° S
Spot 2 Rocket 3.6 20:24:13 10° SSE 20:29:19 83° WSW 20:34:26 10° NNW
OAO 3 Rocket 3.4 20:25:25 10° W 20:30:18 74° N 20:34:27 15° ENE
BREEZE-M DEB (TANK) 3.9 20:27:10 10° WSW 20:31:01 73° NNW 20:38:25 10° NE
Cosmos 1892 3.5 20:28:16 10° NNW 20:31:58 51° W 20:35:40 10° S
Cosmos 1900 4.4 20:27:34 10° NNW 20:32:42 90° ENE 20:36:57 15° SSE
Cosmos 1400 Rocket 4.0 20:31:43 10° NNW 20:35:24 42° W 20:39:08 10° SSW
Meteor 1-29 3.0 20:34:01 10° NNE 20:37:26 54° E 20:40:29 12° S
H-2A R/B 4.1 20:33:51 10° S 20:37:32 39° W 20:41:12 10° NNW
CZ-3B DEB 2.2 20:43:30 10° WNW 20:46:26 24° WSW 20:47:29 18° SSW
Cosmos 1933 3.8 20:47:17 34° ESE 20:48:07 38° E 20:51:53 10° NNE
Cosmos 2263 Rocket 3.3 20:43:55 10° N 20:48:34 26° ENE 20:50:08 23° E
Cosmos 220 Rocket 4.3 20:44:16 10° N 20:48:36 50° ENE 20:50:11 33° SE
Cosmos 1315 Rocket 3.3 20:45:13 10° NNW 20:49:14 60° W 20:52:55 12° S
Envisat 3.0 20:45:59 22° SSE 20:49:15 63° ENE 20:54:17 10° N
Cosmos 2322 Rocket 2.2 20:43:42 10° SSW 20:49:18 87° WNW 20:54:57 10° NNE
OTV 4 1.8 20:48:35 10° W 20:51:02 25° SSW 20:51:16 25° SSW
Cosmos 2360 Rocket 2.6 20:57:15 26° SSE 20:59:43 40° ESE 21:04:57 10° NE
Cosmos 1825 2.0 20:57:32 10° N 21:01:21 76° E 21:02:11 51° SSE
USA 186 3.7 21:05:34 16° SW 21:06:46 22° W 21:09:00 10° NW
Cosmos 2322 4.1 21:07:11 39° ESE 21:07:45 40° ESE 21:13:02 10° NE
SEDSat Delta rocket 3.6 21:03:07 10° WSW 21:08:28 70° S 21:10:43 39° E
USA 234 3.4 21:10:15 35° ESE 21:13:08 64° NE 21:19:35 10° NW
Cosmos 2026 Rocket 4.0 21:08:27 10° N 21:14:40 79° W 21:18:59 21° S
Cosmos 1862 3.1 21:11:53 10° N 21:15:54 77° E 21:16:03 75° ESE
SL-16 R/B 3.1 21:11:40 10° SW 21:17:08 50° WNW 21:22:39 10° N
Helios 1B rocket 4.2 21:15:05 10° N 21:18:44 32° WNW 21:22:22 10° SW
ERBS 2.8 21:16:29 10° NW 21:19:24 60° NNW 21:19:24 60° NNW
Cosmos 1939 Rocket 3.2 21:20:15 47° SSW 21:21:11 64° W 21:25:12 10° NNW
Lacrosse 4 Rocket 1.3 21:16:57 10° NNW 21:21:18 78° ENE 21:21:30 76° E
ERS-1 Rocket 2.9 21:22:09 57° ESE 21:22:44 62° ENE 21:27:41 10° N
Cosmos 1733 Rocket 3.2 21:23:21 10° N 21:27:48 73° W 21:28:30 59° SSW
ATLAS 5 CENTAUR R/B 3.3 21:22:55 10° N 21:28:24 33° NE 21:29:19 32° ENE
Cosmos 1862 Rocket 4.2 21:27:08 23° SSW 21:29:41 53° W 21:34:04 10° N
Skynet4D Del rocket 4.5 21:24:26 10° WSW 21:32:22 55° S 21:33:55 48° SE
ARGOS 3.8 21:34:29 39° ENE 21:34:29 39° ENE 21:38:59 10° N
Cosmos 1408 4.2 21:32:33 10° NNW 21:35:49 30° W 21:36:27 28° WSW
SeaSat 1 3.5 21:36:49 31° NE 21:36:49 31° NE 21:40:40 10° N
Meteor 1-26 Rocket 4.1 21:40:50 64° S 21:41:44 85° E 21:47:31 10° N
Terra 4.2 21:48:57 12° NE 21:48:57 12° NE 21:49:35 10° NNE
Atlas Centaur 2 2.8 21:48:33 10° WSW 21:55:56 69° S 21:56:51 64° SE
USA 229 DEB 3.6 21:49:25 10° SSW 21:56:13 88° WNW 22:03:10 10° NNE
USA 229 3.6 21:49:30 10° SSW 21:56:18 88° WNW 22:03:15 10° NNE
Cosmos 2266 Rocket 3.9 21:56:29 10° N 22:02:48 85° E 22:02:48 85° E
BREEZE-M DEB (TANK) 4.1 21:48:45 10° NW 22:05:18 87° SW 22:05:43 79° SSE
Nimbus 7 Rocket 4.4 22:02:25 10° NNE 22:08:01 80° N 22:08:01 80° N
MetOp-A 4.5 22:09:59 62° WNW 22:09:59 62° WNW 22:14:51 10° NNW
H-2A R/B 3.3 22:14:05 33° NNE 22:14:05 33° NNE 22:16:54 10° N
MOS 1-B Rocket 4.0 22:13:25 73° N 22:13:25 73° N 22:18:34 10° NNW
OAO 3 Rocket 4.4 22:09:07 10° WNW 22:12:17 40° WNW 22:12:17 40° WNW
Cosmos 1867 4.3 22:09:26 10° NNW 22:13:26 46° N 22:13:26 46° N
SPOT 5 4.0 22:22:39 40° NW 22:22:39 40° NW 22:25:48 10° NNW
Milstar 3 3.7 22:22:14 10° W 22:26:44 34° SW 22:26:44 34° SW
COSMOS 2428 3.9 22:34:03 36° N 22:34:03 36° N 22:37:23 10° NNE
Cosmos 2263 Rocket 3.5 22:27:29 10° NW 22:31:52 33° W 22:31:52 33° W
Cosmos 2360 Rocket 4.2 22:39:20 10° WSW 22:43:47 24° WNW 22:48:17 10° N
Cosmos 2333 Rocket 4.3 23:16:06 20° NNE 23:16:06 20° NNE 23:17:50 10° NNE
ATLAS 5 CENTAUR R/B 3.9 23:07:24 10° NW 23:10:52 30° WNW 23:10:52 30° WNW
Cosmos 2278 Rocket 4.3 23:21:46 10° N 23:23:48 22° N 23:23:48 22° N
